Time,TemperatureF,DewpointF,PressureIn,WindDirection,WindDirectionDegrees,WindSpeedMPH,WindSpeedGustMPH,Humidity,HourlyPrecipIn,Conditions,Clouds,dailyrainin,SolarRadiationWatts/m^2,SoftwareType,DateUTC
2013-07-05 00:04:00,69.8,62.3,30.04,SSE,150,1.0,1.0,77,0.00,,,0.00,0,Wunderground v.1.15,2013-07-05 05:04:00,
2013-07-05 00:09:00,69.6,62.1,30.04,SW,217,1.0,1.0,77,0.00,,,0.00,0,Wunderground v.1.15,2013-07-05 05:09:00,
2013-07-05 00:15:00,70.0,62.5,30.03,South,187,0.0,3.0,77,0.00,,,0.00,0,Wunderground v.1.15,2013-07-05 05:15:00,
2013-07-05 00:20:00,70.0,62.1,30.03,SE,134,0.0,3.0,76,0.00,,,0.00,0,Wunderground v.1.15,2013-07-05 05:20:00,
2013-07-05 00:27:00,69.9,62.4,30.03,SSE,155,0.0,1.0,77,0.00,,,0.00,0,Wunderground v.1.15,2013-07-05 05:27:00,
2013-07-05 00:33:00,69.7,61.8,30.03,SW,217,0.0,3.0,76,0.00,,,0.00,0,Wunderground v.1.15,2013-07-05 05:33:00,
2013-07-05 00:38:00,69.8,62.3,30.03,SE,136,0.0,3.0,77,0.00,,,0.00,0,Wunderground v.1.15,2013-07-05 05:38:00,
2013-07-05 00:44:00,69.4,61.9,30.03,ESE,123,0.0,1.0,77,0.00,,,0.00,0,Wunderground v.1.15,2013-07-05 05:44:00,
2013-07-05 00:50:00,69.1,61.9,30.03,SSW,192,0.0,2.0,78,0.00,,,0.00,0,Wunderground v.1.15,2013-07-05 05:50:00,
2013-07-05 00:55:00,68.6,61.8,30.03,SSE,167,0.0,0.0,79,0.00,,,0.00,0,Wunderground v.1.15,2013-07-05 05:55:00,
2013-07-05 01:00:00,68.2,61.4,30.03,SSE,150,0.0,1.0,79,0.00,,,0.00,0,Wunderground v.1.15,2013-07-05 06:00:00,
2013-07-05 01:05:00,68.0,61.6,30.03,SSE,150,0.0,0.0,80,0.00,,,0.00,0,Wunderground v.1.15,2013-07-05 06:05:00,
2013-07-05 01:10:00,68.3,61.9,30.03,South,175,0.0,1.0,80,0.00,,,0.00,0,Wunderground v.1.15,2013-07-05 06:10:00,
2013-07-05 01:16:00,68.3,61.5,30.03,South,175,0.0,1.0,79,0.00,,,0.00,0,Wunderground v.1.15,2013-07-05 06:16:00,
2013-07-05 01:21:00,68.1,61.3,30.03,SSW,196,0.0,1.0,79,0.00,,,0.00,0,Wunderground v.1.15,2013-07-05 06:21:00,
2013-07-05 01:27:00,67.5,61.1,30.03,SSW,196,0.0,0.0,80,0.00,,,0.00,0,Wunderground v.1.15,2013-07-05 06:27:00,
2013-07-05 01:32:00,67.4,61.0,30.03,SSW,196,0.0,0.0,80,0.00,,,0.00,0,Wunderground v.1.15,2013-07-05 06:32:00,
2013-07-05 01:38:00,67.5,61.1,30.03,SSW,196,0.0,0.0,80,0.00,,,0.00,0,Wunderground v.1.15,2013-07-05 06:38:00,
2013-07-05 01:43:00,67.3,61.3,30.03,SSW,196,0.0,0.0,81,0.00,,,0.00,0,Wunderground v.1.15,2013-07-05 06:43:00,
2013-07-05 01:49:00,67.0,61.3,30.03,SSW,196,0.0,0.0,82,0.00,,,0.00,0,Wunderground v.1.15,2013-07-05 06:49:00,
2013-07-05 01:55:00,66.7,61.0,30.03,SSW,196,0.0,0.0,82,0.00,,,0.00,0,Wunderground v.1.15,2013-07-05 06:55:00,
2013-07-05 02:01:00,65.8,60.5,30.03,SSW,196,0.0,0.0,83,0.00,,,0.00,0,Wunderground v.1.15,2013-07-05 07:01:00,
2013-07-05 02:07:00,64.7,60.4,30.03,SSW,196,0.0,0.0,86,0.00,,,0.00,0,Wunderground v.1.15,2013-07-05 07:07:00,
2013-07-05 02:12:00,64.1,60.2,30.03,SSW,196,0.0,0.0,87,0.00,,,0.00,0,Wunderground v.1.15,2013-07-05 07:12:00,
2013-07-05 02:18:00,64.0,60.1,30.02,SSW,196,0.0,0.0,87,0.00,,,0.00,0,Wunderground v.1.15,2013-07-05 07:18:00,
2013-07-05 02:23:00,64.3,60.3,30.02,SSW,196,0.0,0.0,87,0.00,,,0.00,0,Wunderground v.1.15,2013-07-05 07:23:00,
2013-07-05 02:29:00,64.9,60.9,30.02,SSW,196,0.0,0.0,87,0.00,,,0.00,0,Wunderground v.1.15,2013-07-05 07:29:00,
2013-07-05 02:35:00,65.5,60.9,30.02,SSW,196,0.0,0.0,85,0.00,,,0.00,0,Wunderground v.1.15,2013-07-05 07:35:00,
2013-07-05 02:41:00,65.5,60.5,30.02,SSW,196,0.0,0.0,84,0.00,,,0.00,0,Wunderground v.1.15,2013-07-05 07:41:00,
2013-07-05 02:47:00,65.5,60.9,30.02,SSW,196,0.0,0.0,85,0.00,,,0.00,0,Wunderground v.1.15,2013-07-05 07:47:00,
2013-07-05 02:52:00,65.7,60.7,30.02,SSW,196,0.0,0.0,84,0.00,,,0.00,0,Wunderground v.1.15,2013-07-05 07:52:00,
2013-07-05 02:58:00,65.7,60.7,30.02,SSW,196,0.0,0.0,84,0.00,,,0.00,0,Wunderground v.1.15,2013-07-05 07:58:00,
2013-07-05 03:03:00,65.6,61.0,30.03,SSW,196,0.0,0.0,85,0.00,,,0.00,0,Wunderground v.1.15,2013-07-05 08:03:00,
2013-07-05 03:09:00,65.4,60.4,30.03,SSW,196,0.0,0.0,84,0.00,,,0.00,0,Wunderground v.1.15,2013-07-05 08:09:00,
2013-07-05 03:14:00,64.9,59.9,30.02,SSW,196,0.0,0.0,84,0.00,,,0.00,0,Wunderground v.1.15,2013-07-05 08:14:00,
2013-07-05 03:20:00,64.3,59.7,30.02,SSW,196,0.0,0.0,85,0.00,,,0.00,0,Wunderground v.1.15,2013-07-05 08:20:00,
2013-07-05 03:26:00,64.0,59.7,30.02,SSW,196,0.0,0.0,86,0.00,,,0.00,0,Wunderground v.1.15,2013-07-05 08:26:00,
2013-07-05 03:32:00,63.5,59.6,30.03,SSW,196,0.0,0.0,87,0.00,,,0.00,0,Wunderground v.1.15,2013-07-05 08:32:00,
2013-07-05 03:37:00,63.7,59.8,30.03,SSW,196,0.0,0.0,87,0.00,,,0.00,0,Wunderground v.1.15,2013-07-05 08:37:00,
2013-07-05 03:43:00,63.9,60.0,30.03,SSW,196,0.0,0.0,87,0.00,,,0.00,0,Wunderground v.1.15,2013-07-05 08:43:00,
2013-07-05 03:48:00,64.4,60.1,30.03,SSW,196,0.0,0.0,86,0.00,,,0.00,0,Wunderground v.1.15,2013-07-05 08:48:00,
2013-07-05 03:54:00,64.6,60.3,30.03,SSW,196,0.0,0.0,86,0.00,,,0.00,0,Wunderground v.1.15,2013-07-05 08:54:00,
2013-07-05 04:00:00,64.7,60.4,30.02,SSW,196,0.0,0.0,86,0.00,,,0.00,0,Wunderground v.1.15,2013-07-05 09:00:00,
2013-07-05 04:06:00,64.9,60.6,30.02,SSW,196,0.0,0.0,86,0.00,,,0.00,0,Wunderground v.1.15,2013-07-05 09:06:00,
2013-07-05 04:11:00,64.0,59.7,30.02,SSW,196,0.0,0.0,86,0.00,,,0.00,0,Wunderground v.1.15,2013-07-05 09:11:00,
2013-07-05 04:17:00,63.7,60.1,30.03,SSW,196,0.0,0.0,88,0.00,,,0.00,0,Wunderground v.1.15,2013-07-05 09:17:00,
2013-07-05 04:23:00,63.9,60.6,30.03,SSW,196,0.0,0.0,89,0.00,,,0.00,0,Wunderground v.1.15,2013-07-05 09:23:00,
2013-07-05 04:28:00,63.5,59.9,30.03,SSW,196,0.0,0.0,88,0.00,,,0.00,0,Wunderground v.1.15,2013-07-05 09:28:00,
2013-07-05 04:34:00,63.3,60.0,30.02,SSW,196,0.0,0.0,89,0.00,,,0.00,0,Wunderground v.1.15,2013-07-05 09:34:00,
2013-07-05 04:40:00,63.5,59.9,30.02,SSW,196,0.0,0.0,88,0.00,,,0.00,0,Wunderground v.1.15,2013-07-05 09:40:00,
2013-07-05 04:45:00,63.5,59.9,30.02,SSW,196,0.0,0.0,88,0.00,,,0.00,0,Wunderground v.1.15,2013-07-05 09:45:00,
2013-07-05 04:51:00,63.1,59.5,30.02,SSW,196,0.0,1.0,88,0.00,,,0.00,0,Wunderground v.1.15,2013-07-05 09:51:00,
2013-07-05 04:56:00,62.7,58.8,30.02,SSW,196,0.0,1.0,87,0.00,,,0.00,0,Wunderground v.1.15,2013-07-05 09:56:00,
2013-07-05 05:01:00,62.6,59.3,30.02,SSW,196,0.0,0.0,89,0.00,,,0.00,0,Wunderground v.1.15,2013-07-05 10:01:00,
2013-07-05 05:07:00,63.6,59.7,30.02,SSW,196,0.0,0.0,87,0.00,,,0.00,0,Wunderground v.1.15,2013-07-05 10:07:00,
2013-07-05 05:13:00,63.6,59.7,30.02,SSW,196,0.0,0.0,87,0.00,,,0.00,0,Wunderground v.1.15,2013-07-05 10:13:00,
2013-07-05 05:18:00,62.9,59.6,30.03,SSW,196,0.0,0.0,89,0.00,,,0.00,0,Wunderground v.1.15,2013-07-05 10:18:00,
2013-07-05 05:24:00,63.1,59.5,30.03,SSW,196,0.0,0.0,88,0.00,,,0.00,0,Wunderground v.1.15,2013-07-05 10:24:00,
2013-07-05 05:30:00,63.1,59.5,30.04,SSW,196,0.0,0.0,88,0.00,,,0.00,0,Wunderground v.1.15,2013-07-05 10:30:00,
2013-07-05 05:35:00,63.2,59.3,30.04,SSW,196,0.0,0.0,87,0.00,,,0.00,5,Wunderground v.1.15,2013-07-05 10:35:00,
2013-07-05 05:40:00,63.0,59.1,30.04,SSW,196,0.0,1.0,87,0.00,,,0.00,11,Wunderground v.1.15,2013-07-05 10:40:00,
2013-07-05 05:46:00,62.3,58.7,30.04,SSW,196,0.0,0.0,88,0.00,,,0.00,14,Wunderground v.1.15,2013-07-05 10:46:00,
2013-07-05 05:51:00,62.8,59.5,30.04,SSW,196,0.0,0.0,89,0.00,,,0.00,16,Wunderground v.1.15,2013-07-05 10:51:00,
2013-07-05 05:57:00,63.1,59.2,30.04,SSW,196,0.0,0.0,87,0.00,,,0.00,19,Wunderground v.1.15,2013-07-05 10:57:00,
2013-07-05 06:03:00,63.1,58.8,30.04,SSW,196,0.0,3.0,86,0.00,,,0.00,23,Wunderground v.1.15,2013-07-05 11:03:00,
2013-07-05 06:08:00,63.5,59.2,30.04,SSW,196,0.0,3.0,86,0.00,,,0.00,26,Wunderground v.1.15,2013-07-05 11:08:00,
2013-07-05 06:13:00,63.7,59.1,30.04,SSW,196,0.0,0.0,85,0.00,,,0.00,30,Wunderground v.1.15,2013-07-05 11:13:00,
2013-07-05 06:19:00,64.0,59.1,30.04,SE,145,0.0,0.0,84,0.00,,,0.00,33,Wunderground v.1.15,2013-07-05 11:19:00,
2013-07-05 06:24:00,64.3,59.4,30.04,SE,145,0.0,0.0,84,0.00,,,0.00,35,Wunderground v.1.15,2013-07-05 11:24:00,
2013-07-05 06:30:00,64.7,59.8,30.04,SW,215,0.0,4.0,84,0.00,,,0.00,39,Wunderground v.1.15,2013-07-05 11:30:00,
2013-07-05 06:35:00,65.7,60.1,30.04,SW,214,2.0,5.0,82,0.00,,,0.00,40,Wunderground v.1.15,2013-07-05 11:35:00,
2013-07-05 06:40:00,66.2,59.8,30.04,SW,217,3.0,3.0,80,0.00,,,0.00,44,Wunderground v.1.15,2013-07-05 11:40:00,
2013-07-05 06:46:00,66.3,59.9,30.05,SW,218,2.0,4.0,80,0.00,,,0.00,46,Wunderground v.1.15,2013-07-05 11:46:00,
2013-07-05 06:51:00,66.4,60.4,30.05,SSW,209,2.0,2.0,81,0.00,,,0.00,49,Wunderground v.1.15,2013-07-05 11:51:00,
2013-07-05 06:56:00,66.5,60.1,30.05,SSW,210,1.0,3.0,80,0.00,,,0.00,51,Wunderground v.1.15,2013-07-05 11:56:00,
2013-07-05 07:01:00,66.9,60.5,30.05,SSW,211,2.0,3.0,80,0.00,,,0.00,54,Wunderground v.1.15,2013-07-05 12:01:00,
2013-07-05 07:07:00,67.1,60.7,30.05,WSW,247,2.0,4.0,80,0.00,,,0.00,62,Wunderground v.1.15,2013-07-05 12:07:00,
2013-07-05 07:12:00,67.3,60.9,30.05,SSW,196,1.0,3.0,80,0.00,,,0.00,141,Wunderground v.1.15,2013-07-05 12:12:00,
2013-07-05 07:17:00,67.5,60.8,30.05,WSW,245,2.0,5.0,79,0.00,,,0.00,98,Wunderground v.1.15,2013-07-05 12:17:00,
2013-07-05 07:23:00,68.0,61.2,30.05,WSW,247,3.0,4.0,79,0.00,,,0.00,223,Wunderground v.1.15,2013-07-05 12:23:00,
2013-07-05 07:28:00,68.1,61.3,30.05,ESE,113,3.0,4.0,79,0.00,,,0.00,241,Wunderground v.1.15,2013-07-05 12:28:00,
2013-07-05 07:33:00,68.2,62.1,30.05,SSW,213,2.0,2.0,81,0.00,,,0.00,279,Wunderground v.1.15,2013-07-05 12:33:00,
2013-07-05 07:38:00,68.4,61.6,30.05,SW,221,1.0,2.0,79,0.00,,,0.00,294,Wunderground v.1.15,2013-07-05 12:38:00,
2013-07-05 07:43:00,68.7,61.9,30.05,SW,228,1.0,3.0,79,0.00,,,0.00,316,Wunderground v.1.15,2013-07-05 12:43:00,
2013-07-05 07:49:00,69.0,61.9,30.06,SSW,213,2.0,5.0,78,0.00,,,0.00,336,Wunderground v.1.15,2013-07-05 12:49:00,
2013-07-05 07:55:00,69.4,62.2,30.06,SW,236,2.0,4.0,78,0.00,,,0.00,348,Wunderground v.1.15,2013-07-05 12:55:00,
2013-07-05 08:00:00,69.7,62.5,30.06,SSW,212,2.0,4.0,78,0.00,,,0.00,359,Wunderground v.1.15,2013-07-05 13:00:00,
2013-07-05 08:05:00,70.3,63.5,30.06,SW,219,3.0,5.0,79,0.00,,,0.00,380,Wunderground v.1.15,2013-07-05 13:05:00,
2013-07-05 08:11:00,70.6,63.0,30.06,WSW,238,4.0,10.0,77,0.00,,,0.00,397,Wunderground v.1.15,2013-07-05 13:11:00,
2013-07-05 08:16:00,70.8,62.5,30.06,SW,220,7.0,10.0,75,0.00,,,0.00,411,Wunderground v.1.15,2013-07-05 13:16:00,
2013-07-05 08:22:00,70.9,63.3,30.06,SW,219,6.0,7.0,77,0.00,,,0.00,425,Wunderground v.1.15,2013-07-05 13:22:00,
2013-07-05 08:29:00,70.9,62.6,30.07,SW,226,3.0,7.0,75,0.00,,,0.00,450,Wunderground v.1.15,2013-07-05 13:29:00,
2013-07-05 08:35:00,71.1,62.8,30.07,SW,226,5.0,9.0,75,0.00,,,0.00,462,Wunderground v.1.15,2013-07-05 13:35:00,
2013-07-05 08:40:00,71.3,63.0,30.07,SW,234,4.0,4.0,75,0.00,,,0.00,480,Wunderground v.1.15,2013-07-05 13:40:00,
2013-07-05 08:46:00,71.5,62.4,30.07,WSW,238,3.0,10.0,73,0.00,,,0.00,499,Wunderground v.1.15,2013-07-05 13:46:00,
2013-07-05 08:52:00,71.8,62.7,30.07,SW,230,7.0,8.0,73,0.00,,,0.00,515,Wunderground v.1.15,2013-07-05 13:52:00,
2013-07-05 08:58:00,71.9,62.4,30.07,SW,232,7.0,9.0,72,0.00,,,0.00,529,Wunderground v.1.15,2013-07-05 13:58:00,
2013-07-05 09:04:00,72.1,62.6,30.06,SW,236,7.0,8.0,72,0.00,,,0.00,550,Wunderground v.1.15,2013-07-05 14:04:00,
2013-07-05 09:10:00,72.3,62.8,30.06,SW,219,6.0,8.0,72,0.00,,,0.00,568,Wunderground v.1.15,2013-07-05 14:10:00,
2013-07-05 09:16:00,72.6,63.4,30.06,SW,214,5.0,6.0,73,0.00,,,0.00,585,Wunderground v.1.15,2013-07-05 14:16:00,
2013-07-05 09:21:00,72.9,63.7,30.06,SW,215,4.0,4.0,73,0.00,,,0.00,601,Wunderground v.1.15,2013-07-05 14:21:00,
2013-07-05 09:27:00,73.1,63.5,30.06,SW,215,4.0,5.0,72,0.00,,,0.00,621,Wunderground v.1.15,2013-07-05 14:27:00,
2013-07-05 09:32:00,73.2,63.2,30.06,South,186,3.0,3.0,71,0.00,,,0.00,629,Wunderground v.1.15,2013-07-05 14:32:00,
2013-07-05 09:38:00,73.4,63.4,30.06,SW,222,2.0,4.0,71,0.00,,,0.00,645,Wunderground v.1.15,2013-07-05 14:38:00,
2013-07-05 09:44:00,73.6,62.8,30.06,SW,223,2.0,5.0,69,0.00,,,0.00,664,Wunderground v.1.15,2013-07-05 14:44:00,
2013-07-05 09:49:00,73.8,63.4,30.06,SW,216,3.0,8.0,70,0.00,,,0.00,682,Wunderground v.1.15,2013-07-05 14:49:00,
2013-07-05 09:54:00,74.1,63.7,30.06,SW,227,3.0,6.0,70,0.00,,,0.00,691,Wunderground v.1.15,2013-07-05 14:54:00,
2013-07-05 10:00:00,74.2,63.8,30.05,WSW,237,3.0,6.0,70,0.00,,,0.00,701,Wunderground v.1.15,2013-07-05 15:00:00,
2013-07-05 10:05:00,74.4,63.1,30.05,SW,224,4.0,7.0,68,0.00,,,0.00,715,Wunderground v.1.15,2013-07-05 15:05:00,
2013-07-05 10:11:00,74.6,62.9,30.05,SW,225,5.0,8.0,67,0.00,,,0.00,729,Wunderground v.1.15,2013-07-05 15:11:00,
2013-07-05 10:17:00,74.8,62.7,30.05,SW,234,6.0,8.0,66,0.00,,,0.00,744,Wunderground v.1.15,2013-07-05 15:17:00,
2013-07-05 10:22:00,75.1,63.8,30.05,WSW,244,6.0,7.0,68,0.00,,,0.00,756,Wunderground v.1.15,2013-07-05 15:22:00,
2013-07-05 10:28:00,75.3,63.6,30.05,WSW,242,5.0,7.0,67,0.00,,,0.00,759,Wunderground v.1.15,2013-07-05 15:28:00,
2013-07-05 10:33:00,75.5,63.8,30.05,SW,223,4.0,4.0,67,0.00,,,0.00,773,Wunderground v.1.15,2013-07-05 15:33:00,
2013-07-05 10:39:00,75.9,64.2,30.05,SW,222,2.0,4.0,67,0.00,,,0.00,791,Wunderground v.1.15,2013-07-05 15:39:00,
2013-07-05 10:45:00,75.9,63.3,30.05,SW,219,2.0,2.0,65,0.00,,,0.00,800,Wunderground v.1.15,2013-07-05 15:45:00,
2013-07-05 10:51:00,76.2,64.9,30.05,SSW,202,2.0,4.0,68,0.00,,,0.00,810,Wunderground v.1.15,2013-07-05 15:51:00,
2013-07-05 10:53:00,76.2,64.0,30.05,SSW,213,2.0,2.0,66,0.00,,,0.00,812,Wunderground v.1.15,2013-07-05 15:53:00,
2013-07-05 10:58:00,76.4,64.2,30.05,SW,220,2.0,5.0,66,0.00,,,0.00,826,Wunderground v.1.15,2013-07-05 15:58:00,
2013-07-05 11:04:00,76.6,64.0,30.05,SSW,213,2.0,4.0,65,0.00,,,0.00,835,Wunderground v.1.15,2013-07-05 16:04:00,
2013-07-05 11:09:00,76.8,63.7,30.05,SSW,206,2.0,4.0,64,0.00,,,0.00,846,Wunderground v.1.15,2013-07-05 16:09:00,
2013-07-05 11:15:00,77.0,62.5,30.05,SW,236,3.0,6.0,61,0.00,,,0.00,851,Wunderground v.1.15,2013-07-05 16:15:00,
2013-07-05 11:20:00,77.3,64.2,30.05,SSW,211,3.0,6.0,64,0.00,,,0.00,858,Wunderground v.1.15,2013-07-05 16:20:00,
2013-07-05 11:26:00,77.4,63.4,30.05,WNW,282,1.0,3.0,62,0.00,,,0.00,881,Wunderground v.1.15,2013-07-05 16:26:00,
2013-07-05 11:31:00,77.9,63.8,30.05,South,172,1.0,1.0,62,0.00,,,0.00,882,Wunderground v.1.15,2013-07-05 16:31:00,
2013-07-05 11:37:00,77.9,61.9,30.05,SW,232,3.0,5.0,58,0.00,,,0.00,889,Wunderground v.1.15,2013-07-05 16:37:00,
2013-07-05 11:43:00,78.0,62.0,30.05,SW,221,5.0,5.0,58,0.00,,,0.00,895,Wunderground v.1.15,2013-07-05 16:43:00,
2013-07-05 11:49:00,78.0,62.5,30.05,SW,225,6.0,7.0,59,0.00,,,0.00,889,Wunderground v.1.15,2013-07-05 16:49:00,
2013-07-05 11:54:00,78.0,63.0,30.05,SW,219,4.0,5.0,60,0.00,,,0.00,911,Wunderground v.1.15,2013-07-05 16:54:00,
2013-07-05 12:00:00,78.6,62.6,30.04,South,174,2.0,8.0,58,0.00,,,0.00,926,Wunderground v.1.15,2013-07-05 17:00:00,
2013-07-05 12:06:00,78.3,62.8,30.04,SSW,206,2.0,2.0,59,0.00,,,0.00,271,Wunderground v.1.15,2013-07-05 17:06:00,
2013-07-05 12:12:00,78.7,62.2,30.04,SSW,212,2.0,7.0,57,0.00,,,0.00,958,Wunderground v.1.15,2013-07-05 17:12:00,
2013-07-05 12:18:00,79.7,63.1,30.04,South,190,3.0,7.0,57,0.00,,,0.00,963,Wunderground v.1.15,2013-07-05 17:18:00,
2013-07-05 12:23:00,79.4,63.3,30.04,SSW,207,2.0,3.0,58,0.00,,,0.00,1000,Wunderground v.1.15,2013-07-05 17:23:00,
2013-07-05 12:29:00,79.6,63.5,30.03,South,173,2.0,3.0,58,0.00,,,0.00,998,Wunderground v.1.15,2013-07-05 17:29:00,
2013-07-05 12:35:00,78.7,62.7,30.03,SW,219,2.0,8.0,58,0.00,,,0.00,269,Wunderground v.1.15,2013-07-05 17:35:00,
2013-07-05 12:41:00,79.0,63.4,30.03,SW,219,3.0,8.0,59,0.00,,,0.00,995,Wunderground v.1.15,2013-07-05 17:41:00,
2013-07-05 12:47:00,79.4,63.3,30.03,SW,225,3.0,8.0,58,0.00,,,0.00,988,Wunderground v.1.15,2013-07-05 17:47:00,
2013-07-05 12:52:00,79.7,63.6,30.03,South,180,4.0,4.0,58,0.00,,,0.00,1018,Wunderground v.1.15,2013-07-05 17:52:00,
2013-07-05 12:57:00,79.5,63.4,30.03,SSE,163,3.0,6.0,58,0.00,,,0.00,1056,Wunderground v.1.15,2013-07-05 17:57:00,
2013-07-05 13:03:00,79.5,63.4,30.03,SSW,213,3.0,5.0,58,0.00,,,0.00,1014,Wunderground v.1.15,2013-07-05 18:03:00,
2013-07-05 13:08:00,79.3,64.7,30.03,SW,234,2.0,5.0,61,0.00,,,0.00,993,Wunderground v.1.15,2013-07-05 18:08:00,
2013-07-05 13:13:00,79.4,61.8,30.03,SW,227,3.0,9.0,55,0.00,,,0.00,995,Wunderground v.1.15,2013-07-05 18:13:00,
2013-07-05 13:19:00,80.2,63.1,30.03,SE,140,4.0,9.0,56,0.00,,,0.00,998,Wunderground v.1.15,2013-07-05 18:19:00,
2013-07-05 13:25:00,80.7,62.5,30.03,SW,220,3.0,4.0,54,0.00,,,0.00,1028,Wunderground v.1.15,2013-07-05 18:25:00,
2013-07-05 13:31:00,80.0,61.3,30.02,SW,225,4.0,8.0,53,0.00,,,0.00,1002,Wunderground v.1.15,2013-07-05 18:31:00,
2013-07-05 13:36:00,80.4,62.2,30.02,SSW,199,4.0,8.0,54,0.00,,,0.00,997,Wunderground v.1.15,2013-07-05 18:36:00,
2013-07-05 13:41:00,80.0,62.9,30.02,SW,216,3.0,4.0,56,0.00,,,0.00,1009,Wunderground v.1.15,2013-07-05 18:41:00,
2013-07-05 13:48:00,80.5,61.8,30.02,South,189,3.0,8.0,53,0.00,,,0.00,993,Wunderground v.1.15,2013-07-05 18:48:00,
2013-07-05 13:53:00,80.8,62.6,30.02,South,186,3.0,3.0,54,0.00,,,0.00,1021,Wunderground v.1.15,2013-07-05 18:53:00,
2013-07-05 13:58:00,81.2,63.0,30.02,SSW,212,2.0,4.0,54,0.00,,,0.00,1005,Wunderground v.1.15,2013-07-05 18:58:00,
2013-07-05 14:03:00,80.9,61.1,30.02,SSW,213,2.0,7.0,51,0.00,,,0.00,1023,Wunderground v.1.15,2013-07-05 19:03:00,
2013-07-05 14:08:00,80.1,62.0,30.02,SE,141,5.0,10.0,54,0.00,,,0.00,316,Wunderground v.1.15,2013-07-05 19:08:00,
2013-07-05 14:14:00,80.4,62.8,30.02,South,177,5.0,5.0,55,0.00,,,0.00,345,Wunderground v.1.15,2013-07-05 19:14:00,
2013-07-05 14:19:00,80.5,61.8,30.02,SSW,211,3.0,8.0,53,0.00,,,0.00,867,Wunderground v.1.15,2013-07-05 19:19:00,
2013-07-05 14:25:00,80.5,62.8,30.02,SE,124,5.0,5.0,55,0.00,,,0.00,905,Wunderground v.1.15,2013-07-05 19:25:00,
2013-07-05 14:31:00,81.2,63.0,30.01,SE,130,4.0,4.0,54,0.00,,,0.00,896,Wunderground v.1.15,2013-07-05 19:31:00,
2013-07-05 14:36:00,82.1,63.3,30.01,East,96,3.0,4.0,53,0.00,,,0.00,909,Wunderground v.1.15,2013-07-05 19:36:00,
2013-07-05 14:42:00,81.9,62.5,30.01,SE,130,2.0,2.0,52,0.00,,,0.00,905,Wunderground v.1.15,2013-07-05 19:42:00,
2013-07-05 14:47:00,82.0,62.6,30.00,East,101,2.0,6.0,52,0.00,,,0.00,891,Wunderground v.1.15,2013-07-05 19:47:00,
2013-07-05 14:53:00,82.4,62.5,30.00,ESE,102,2.0,2.0,51,0.00,,,0.00,933,Wunderground v.1.15,2013-07-05 19:53:00,
2013-07-05 14:58:00,81.5,62.2,30.00,SSW,194,3.0,5.0,52,0.00,,,0.00,928,Wunderground v.1.15,2013-07-05 19:58:00,
2013-07-05 15:03:00,82.1,61.0,30.00,South,184,4.0,4.0,49,0.00,,,0.00,766,Wunderground v.1.15,2013-07-05 20:03:00,
2013-07-05 15:08:00,81.9,60.9,30.00,SE,129,3.0,6.0,49,0.00,,,0.00,875,Wunderground v.1.15,2013-07-05 20:08:00,
2013-07-05 15:09:00,82.2,62.8,30.00,SSE,159,2.0,6.0,52,0.00,,,0.00,867,Wunderground v.1.15,2013-07-05 20:09:00,
2013-07-05 15:15:00,81.9,63.6,30.00,SE,138,3.0,8.0,54,0.00,,,0.00,846,Wunderground v.1.15,2013-07-05 20:15:00,
2013-07-05 15:21:00,81.7,60.7,30.00,SW,234,3.0,3.0,49,0.00,,,0.00,865,Wunderground v.1.15,2013-07-05 20:21:00,
2013-07-05 15:23:00,81.5,62.2,30.00,SW,222,3.0,7.0,52,0.00,,,0.00,877,Wunderground v.1.15,2013-07-05 20:23:00,
2013-07-05 15:29:00,81.9,60.9,30.00,SSE,153,3.0,7.0,49,0.00,,,0.00,209,Wunderground v.1.15,2013-07-05 20:29:00,
2013-07-05 15:35:00,82.0,61.5,30.00,SE,125,2.0,6.0,50,0.00,,,0.00,912,Wunderground v.1.15,2013-07-05 20:35:00,
2013-07-05 15:41:00,82.4,60.7,30.00,South,191,2.0,3.0,48,0.00,,,0.00,844,Wunderground v.1.15,2013-07-05 20:41:00,
2013-07-05 15:46:00,81.9,63.1,29.99,SW,218,2.0,5.0,53,0.00,,,0.00,812,Wunderground v.1.15,2013-07-05 20:46:00,
2013-07-05 15:51:00,81.7,61.2,29.99,SSW,194,3.0,5.0,50,0.00,,,0.00,791,Wunderground v.1.15,2013-07-05 20:51:00,
2013-07-05 15:56:00,81.5,60.5,29.99,SW,215,4.0,8.0,49,0.00,,,0.00,772,Wunderground v.1.15,2013-07-05 20:56:00,
2013-07-05 16:02:00,82.1,61.0,29.99,SSE,149,4.0,4.0,49,0.00,,,0.00,763,Wunderground v.1.15,2013-07-05 21:02:00,
2013-07-05 16:08:00,82.8,61.7,29.99,SSW,205,2.0,4.0,49,0.00,,,0.00,737,Wunderground v.1.15,2013-07-05 21:08:00,
2013-07-05 16:13:00,82.2,61.1,29.99,SSW,199,2.0,6.0,49,0.00,,,0.00,230,Wunderground v.1.15,2013-07-05 21:13:00,
2013-07-05 16:18:00,82.6,60.9,29.99,South,177,3.0,9.0,48,0.00,,,0.00,740,Wunderground v.1.15,2013-07-05 21:18:00,
2013-07-05 16:24:00,82.4,60.7,29.99,ENE,72,3.0,3.0,48,0.00,,,0.00,264,Wunderground v.1.15,2013-07-05 21:24:00,
2013-07-05 16:29:00,82.6,60.9,29.99,South,175,2.0,3.0,48,0.00,,,0.00,766,Wunderground v.1.15,2013-07-05 21:29:00,
2013-07-05 16:34:00,82.8,61.7,29.99,North,355,1.0,2.0,49,0.00,,,0.00,738,Wunderground v.1.15,2013-07-05 21:34:00,
2013-07-05 16:39:00,82.6,62.1,29.99,SW,218,1.0,6.0,50,0.00,,,0.00,490,Wunderground v.1.15,2013-07-05 21:39:00,
2013-07-05 16:45:00,81.6,62.3,29.99,ESE,107,2.0,6.0,52,0.00,,,0.00,696,Wunderground v.1.15,2013-07-05 21:45:00,
2013-07-05 16:51:00,81.3,61.4,29.99,SE,134,2.0,7.0,51,0.00,,,0.00,151,Wunderground v.1.15,2013-07-05 21:51:00,
2013-07-05 16:57:00,80.2,61.5,29.99,ESE,107,2.0,7.0,53,0.00,,,0.00,137,Wunderground v.1.15,2013-07-05 21:57:00,
2013-07-05 17:03:00,79.9,60.7,29.99,East,86,2.0,5.0,52,0.00,,,0.00,313,Wunderground v.1.15,2013-07-05 22:03:00,
2013-07-05 17:09:00,80.0,60.2,29.99,SE,134,2.0,5.0,51,0.00,,,0.00,199,Wunderground v.1.15,2013-07-05 22:09:00,
2013-07-05 17:14:00,80.0,60.2,29.99,East,88,2.0,4.0,51,0.00,,,0.00,160,Wunderground v.1.15,2013-07-05 22:14:00,
2013-07-05 17:20:00,79.7,60.5,29.99,East,97,2.0,9.0,52,0.00,,,0.00,237,Wunderground v.1.15,2013-07-05 22:20:00,
2013-07-05 17:26:00,80.4,60.6,29.99,ESE,110,2.0,4.0,51,0.00,,,0.00,290,Wunderground v.1.15,2013-07-05 22:26:00,
2013-07-05 17:31:00,80.9,61.1,29.99,SSW,196,2.0,2.0,51,0.00,,,0.00,408,Wunderground v.1.15,2013-07-05 22:31:00,
2013-07-05 17:36:00,80.1,61.4,29.99,West,279,2.0,3.0,53,0.00,,,0.00,149,Wunderground v.1.15,2013-07-05 22:36:00,
2013-07-05 17:43:00,79.9,61.8,29.99,SSW,209,1.0,3.0,54,0.00,,,0.00,142,Wunderground v.1.15,2013-07-05 22:43:00,
2013-07-05 17:48:00,80.1,62.0,29.99,East,96,0.0,3.0,54,0.00,,,0.00,139,Wunderground v.1.15,2013-07-05 22:48:00,
2013-07-05 17:50:00,79.8,61.7,29.99,SE,126,1.0,1.0,54,0.00,,,0.00,84,Wunderground v.1.15,2013-07-05 22:50:00,
2013-07-05 17:56:00,79.6,62.5,29.99,West,273,1.0,3.0,56,0.00,,,0.00,396,Wunderground v.1.15,2013-07-05 22:56:00,
2013-07-05 18:01:00,80.0,61.9,29.99,SSE,147,1.0,1.0,54,0.00,,,0.00,121,Wunderground v.1.15,2013-07-05 23:01:00,
2013-07-05 18:04:00,79.9,61.2,29.99,South,185,1.0,2.0,53,0.00,,,0.00,214,Wunderground v.1.15,2013-07-05 23:04:00,
2013-07-05 18:10:00,79.4,61.8,29.99,ESE,117,1.0,3.0,55,0.00,,,0.00,132,Wunderground v.1.15,2013-07-05 23:10:00,
2013-07-05 18:16:00,79.5,61.4,29.98,South,186,1.0,4.0,54,0.00,,,0.00,320,Wunderground v.1.15,2013-07-05 23:16:00,
2013-07-05 18:22:00,80.2,62.6,29.98,SSW,192,1.0,1.0,55,0.00,,,0.00,309,Wunderground v.1.15,2013-07-05 23:22:00,
2013-07-05 18:28:00,81.1,61.8,29.98,SE,125,0.0,1.0,52,0.00,,,0.00,292,Wunderground v.1.15,2013-07-05 23:28:00,
2013-07-05 18:33:00,80.8,61.5,29.99,SE,146,1.0,3.0,52,0.00,,,0.00,271,Wunderground v.1.15,2013-07-05 23:33:00,
2013-07-05 18:39:00,80.9,61.1,29.99,South,169,1.0,3.0,51,0.00,,,0.00,251,Wunderground v.1.15,2013-07-05 23:39:00,
2013-07-05 18:45:00,80.6,60.2,29.99,East,92,1.0,3.0,50,0.00,,,0.00,230,Wunderground v.1.15,2013-07-05 23:45:00,
2013-07-05 18:50:00,80.8,61.0,29.99,SE,143,0.0,1.0,51,0.00,,,0.00,207,Wunderground v.1.15,2013-07-05 23:50:00,
2013-07-05 18:56:00,80.7,61.4,29.99,SSE,150,0.0,2.0,52,0.00,,,0.00,188,Wunderground v.1.15,2013-07-05 23:56:00,
2013-07-05 19:01:00,80.8,61.5,29.98,SE,134,0.0,0.0,52,0.00,,,0.00,165,Wunderground v.1.15,2013-07-06 00:01:00,
2013-07-05 19:06:00,80.4,61.7,29.98,SE,134,0.0,1.0,53,0.00,,,0.00,146,Wunderground v.1.15,2013-07-06 00:06:00,
2013-07-05 19:13:00,80.4,61.7,29.98,SE,134,0.0,0.0,53,0.00,,,0.00,134,Wunderground v.1.15,2013-07-06 00:13:00,
2013-07-05 19:18:00,79.6,61.5,29.98,SE,134,0.0,0.0,54,0.00,,,0.00,113,Wunderground v.1.15,2013-07-06 00:18:00,
2013-07-05 19:24:00,79.3,61.7,29.98,SE,134,0.0,0.0,55,0.00,,,0.00,100,Wunderground v.1.15,2013-07-06 00:24:00,
2013-07-05 19:30:00,79.6,62.5,29.98,SSE,163,0.0,0.0,56,0.00,,,0.00,90,Wunderground v.1.15,2013-07-06 00:30:00,
2013-07-05 19:35:00,79.5,62.4,29.98,South,189,0.0,0.0,56,0.00,,,0.00,77,Wunderground v.1.15,2013-07-06 00:35:00,
2013-07-05 19:41:00,79.1,62.6,29.98,NE,54,0.0,0.0,57,0.00,,,0.00,67,Wunderground v.1.15,2013-07-06 00:41:00,
2013-07-05 19:46:00,78.8,62.8,29.99,NE,54,0.0,0.0,58,0.00,,,0.00,53,Wunderground v.1.15,2013-07-06 00:46:00,
2013-07-05 19:52:00,78.3,62.8,29.99,NE,53,0.0,0.0,59,0.00,,,0.00,44,Wunderground v.1.15,2013-07-06 00:52:00,
2013-07-05 19:57:00,77.6,62.6,29.99,East,94,0.0,2.0,60,0.00,,,0.00,35,Wunderground v.1.15,2013-07-06 00:57:00,
2013-07-05 20:02:00,76.5,63.9,29.99,ENE,70,0.0,0.0,65,0.00,,,0.00,28,Wunderground v.1.15,2013-07-06 01:02:00,
2013-07-05 20:08:00,75.9,63.3,29.99,SSE,154,0.0,1.0,65,0.00,,,0.00,23,Wunderground v.1.15,2013-07-06 01:08:00,
2013-07-05 20:14:00,75.4,63.7,29.99,SSE,154,0.0,0.0,67,0.00,,,0.00,16,Wunderground v.1.15,2013-07-06 01:14:00,
2013-07-05 20:20:00,74.8,62.7,29.99,SSE,154,0.0,0.0,66,0.00,,,0.00,12,Wunderground v.1.15,2013-07-06 01:20:00,
2013-07-05 20:26:00,74.0,62.3,29.99,SSE,154,0.0,0.0,67,0.00,,,0.00,7,Wunderground v.1.15,2013-07-06 01:26:00,
2013-07-05 20:31:00,73.2,62.0,29.99,SSE,154,0.0,0.0,68,0.00,,,0.00,5,Wunderground v.1.15,2013-07-06 01:31:00,
2013-07-05 20:37:00,72.3,63.2,29.99,SSE,154,0.0,0.0,73,0.00,,,0.00,0,Wunderground v.1.15,2013-07-06 01:37:00,
2013-07-05 20:42:00,71.6,62.9,29.99,SSE,154,0.0,0.0,74,0.00,,,0.00,0,Wunderground v.1.15,2013-07-06 01:42:00,
2013-07-05 20:48:00,70.9,62.6,29.99,SSE,154,0.0,0.0,75,0.00,,,0.00,0,Wunderground v.1.15,2013-07-06 01:48:00,
2013-07-05 20:53:00,70.1,62.2,29.99,SSE,154,0.0,0.0,76,0.00,,,0.00,0,Wunderground v.1.15,2013-07-06 01:53:00,
2013-07-05 20:59:00,69.5,62.3,29.99,SSE,154,0.0,0.0,78,0.00,,,0.00,0,Wunderground v.1.15,2013-07-06 01:59:00,
2013-07-05 21:05:00,69.2,62.0,29.99,SSE,154,0.0,0.0,78,0.00,,,0.00,0,Wunderground v.1.15,2013-07-06 02:05:00,
2013-07-05 21:06:00,69.2,61.7,29.99,SSE,154,0.0,0.0,77,0.00,,,0.00,0,Wunderground v.1.15,2013-07-06 02:06:00,
2013-07-05 21:12:00,69.3,61.8,29.99,SSE,154,0.0,0.0,77,0.00,,,0.00,0,Wunderground v.1.15,2013-07-06 02:12:00,
2013-07-05 21:18:00,68.9,62.1,30.00,SSE,154,0.0,0.0,79,0.00,,,0.00,0,Wunderground v.1.15,2013-07-06 02:18:00,
2013-07-05 21:24:00,69.1,62.3,30.00,SSE,154,0.0,0.0,79,0.00,,,0.00,0,Wunderground v.1.15,2013-07-06 02:24:00,
2013-07-05 21:30:00,68.8,62.0,30.00,SSE,154,0.0,0.0,79,0.00,,,0.00,0,Wunderground v.1.15,2013-07-06 02:30:00,
2013-07-05 21:36:00,67.8,61.8,30.00,SSE,154,0.0,0.0,81,0.00,,,0.00,0,Wunderground v.1.15,2013-07-06 02:36:00,
2013-07-05 21:42:00,68.1,61.0,30.00,SSE,154,0.0,0.0,78,0.00,,,0.00,0,Wunderground v.1.15,2013-07-06 02:42:00,
2013-07-05 21:48:00,68.0,61.2,30.00,SSE,154,0.0,0.0,79,0.00,,,0.00,0,Wunderground v.1.15,2013-07-06 02:48:00,
2013-07-05 21:53:00,67.2,61.2,30.00,SSE,154,0.0,0.0,81,0.00,,,0.00,0,Wunderground v.1.15,2013-07-06 02:53:00,
2013-07-05 21:58:00,66.7,61.0,30.00,SSE,153,0.0,0.0,82,0.00,,,0.00,0,Wunderground v.1.15,2013-07-06 02:58:00,
2013-07-05 22:03:00,66.4,61.1,30.01,SSE,153,0.0,0.0,83,0.00,,,0.00,0,Wunderground v.1.15,2013-07-06 03:03:00,
2013-07-05 22:09:00,66.3,61.0,30.01,SSE,153,0.0,0.0,83,0.00,,,0.00,0,Wunderground v.1.15,2013-07-06 03:09:00,
2013-07-05 22:15:00,66.7,60.7,30.01,SSE,153,0.0,0.0,81,0.00,,,0.00,0,Wunderground v.1.15,2013-07-06 03:15:00,
2013-07-05 22:20:00,66.8,60.4,30.01,SSE,153,0.0,0.0,80,0.00,,,0.00,0,Wunderground v.1.15,2013-07-06 03:20:00,
2013-07-05 22:26:00,67.1,60.4,30.01,SSE,153,0.0,0.0,79,0.00,,,0.00,0,Wunderground v.1.15,2013-07-06 03:26:00,
2013-07-05 22:32:00,66.2,60.2,30.01,SSE,153,0.0,0.0,81,0.00,,,0.00,0,Wunderground v.1.15,2013-07-06 03:32:00,
2013-07-05 22:37:00,66.2,60.2,30.01,SSE,153,0.0,0.0,81,0.00,,,0.00,0,Wunderground v.1.15,2013-07-06 03:37:00,
2013-07-05 22:43:00,65.8,60.2,30.01,SSE,153,0.0,0.0,82,0.00,,,0.00,0,Wunderground v.1.15,2013-07-06 03:43:00,
2013-07-05 22:48:00,64.6,60.0,30.01,SSE,153,0.0,0.0,85,0.00,,,0.00,0,Wunderground v.1.15,2013-07-06 03:48:00,
2013-07-05 22:54:00,63.9,60.0,30.01,SSE,153,0.0,0.0,87,0.00,,,0.00,0,Wunderground v.1.15,2013-07-06 03:54:00,
2013-07-05 22:59:00,63.9,60.3,30.02,SSE,153,0.0,0.0,88,0.00,,,0.00,0,Wunderground v.1.15,2013-07-06 03:59:00,
2013-07-05 23:01:00,64.0,60.4,30.02,SSE,153,0.0,0.0,88,0.00,,,0.00,0,Wunderground v.1.15,2013-07-06 04:01:00,
2013-07-05 23:02:00,63.9,60.3,30.02,SSE,153,0.0,0.0,88,0.00,,,0.00,0,Wunderground v.1.15,2013-07-06 04:02:00,
2013-07-05 23:03:00,63.9,60.3,30.02,SSE,153,0.0,0.0,88,0.00,,,0.00,0,Wunderground v.1.15,2013-07-06 04:03:00,
2013-07-05 23:07:00,64.2,60.6,30.02,SSE,153,0.0,0.0,88,0.00,,,0.00,0,Wunderground v.1.15,2013-07-06 04:07:00,
2013-07-05 23:10:00,64.4,60.4,30.02,SSE,153,0.0,0.0,87,0.00,,,0.00,0,Wunderground v.1.15,2013-07-06 04:10:00,
2013-07-05 23:15:00,64.0,60.1,30.02,SSE,153,0.0,0.0,87,0.00,,,0.00,0,Wunderground v.1.15,2013-07-06 04:15:00,
2013-07-05 23:21:00,63.9,60.0,30.02,SSE,153,0.0,0.0,87,0.00,,,0.00,0,Wunderground v.1.15,2013-07-06 04:21:00,
2013-07-05 23:27:00,64.0,60.1,30.02,SSE,153,0.0,0.0,87,0.00,,,0.00,0,Wunderground v.1.15,2013-07-06 04:27:00,
2013-07-05 23:33:00,63.8,59.9,30.01,SSE,153,0.0,0.0,87,0.00,,,0.00,0,Wunderground v.1.15,2013-07-06 04:33:00,
2013-07-05 23:38:00,63.4,59.5,30.01,SSE,153,0.0,0.0,87,0.00,,,0.00,0,Wunderground v.1.15,2013-07-06 04:38:00,
2013-07-05 23:43:00,63.2,59.6,30.01,SSE,153,0.0,0.0,88,0.00,,,0.00,0,Wunderground v.1.15,2013-07-06 04:43:00,
2013-07-05 23:49:00,62.9,59.3,30.01,SSE,153,0.0,0.0,88,0.00,,,0.00,0,Wunderground v.1.15,2013-07-06 04:49:00,
2013-07-05 23:55:00,62.6,59.3,30.01,SSE,153,0.0,0.0,89,0.00,,,0.00,0,Wunderground v.1.15,2013-07-06 04:55:00,